Hlavní strana
METAR-TAF:

METAR-TAF

Letiště :

Watauga County Hospital Heliport

Boone, Severní Karolína, Spojené státy americké

zeměpisná šířka: 36-12N, zeměpisná délka: 081-39W, výška: 959 m

Aktuální stav počasí

Zpráva byla vytvořena před 13 minutami, v 14:15 UTC
Bezvětří
Teplota 22°C
Vlhkost vzduchu 65%
Tlak 1019 hPa
Viditelnost: 16.1 km

METAR: KTNB 021415Z AUTO 00000KT 10SM 22/15 A3008 RMK AO2 T02190153

Čas: 10:28 (14:28 UTC)


TAF: chybějící

Stav a předpovědi počasí z více než 4 000 letišť (zprávy METAR a TAF).

Červené a žluté tečky na mapě představují dostupné meteorologické stanice.

Když kurzor umístíte na tečku, zobrazí se název stanice.

Pak kliknutím zobrazíte stav a předpověď počasí.

Chcete-li změnit mapu, kliknutím na zelené tlačítko se znaménkem +mapu přiblížíte, kliknutím na zelené tlačítko se znaménkem – mapu oddálíte a kliknutím na zelené šipky přejdete na sousední mapy.


METAR-TAF: